Weather History for KALB - April, 2014

Change the Weather History Date:

Friday, April 11, 2014

  Actual Average Record
Temperature  
Mean Temperature 53 °F 46 °F  
Max Temperature 66 °F 56 °F 82 °F (1945)
Min Temperature 40 °F 36 °F 20 °F (1874)
Degree Days  
Heating Degree Days 12 19  
Month to date heating degree days 219 232  
Since 1 July heating degree days 6483 6105  
Cooling Degree Days 0 0  
Month to date cooling degree days 0 0  
Year to date cooling degree days 0 0  
Growing Degree Days 4 (Base 50)    
Moisture  
Dew Point 38 °F    
Average Humidity 62    
Maximum Humidity 93    
Minimum Humidity 30    
Precipitation  
Precipitation 0.14 in 0.11 in 0.97 in (1878)
Month to date precipitation 0.30 1.19  
Year to date precipitation 8.81 9.19  
Snow  
Snow 0.00 in 0.10 in 1.70 in (1942)
Month to date snowfall T 1.3  
Since 1 July snowfall 71.1 58.0  
Snow Depth 0.00 in    
Sea Level Pressure  
Sea Level Pressure 29.98 in    
Wind  
Wind Speed 7 mph (WSW)    
Max Wind Speed 18 mph    
Max Gust Speed 25 mph    
Visibility 9 miles    
Events Fog , Rain    
T = Trace of Precipitation, MM = Missing Value Source: NWS Daily Summary

Daily Weather History Graph

Daily Weather History Graph

Search for Another Location

Airport or City:

Trip Planner

Search our weather history database for the weather conditions in past years. The results will help you decide how hot, cold, wet, or windy it might be!

Date:

Astronomy

Apr. 11, 2014 Rise Set
Actual Time 6:20 AM EDT 7:32 PM EDT
Civil Twilight 5:51 AM EDT 8:01 PM EDT
Nautical Twilight 5:16 AM EDT 8:36 PM EDT
Astronomical Twilight 4:39 AM EDT 9:13 PM EDT
Moon 4:06 PM EDT (4/11) 4:19 AM EDT (4/11)
Length of Visible Light 14h 10m
Length of Day
13h 12m
Waxing Gibbous, 87% of the Moon is Illuminated
Apr 11
Waxing Gibbous
Apr 15
Full
Apr 22
Last Quarter
Apr 29
New
May 6
First Quarter

Hourly Weather History & Observations

Time (EDT) Temp. Windchill Dew Point Humidity Pressure Visibility Wind Dir Wind Speed Gust Speed Precip Events Conditions
12:51 AM 55.9 °F - 32.0 °F 40% 29.88 in 10.0 mi South 13.8 mph 23.0 mph N/A   Mostly Cloudy
1:51 AM 55.9 °F - 32.0 °F 40% 29.86 in 10.0 mi SSE 16.1 mph 23.0 mph N/A   Overcast
2:51 AM 55.9 °F - 32.0 °F 40% 29.86 in 10.0 mi South 10.4 mph - N/A   Overcast
3:51 AM 55.9 °F - 32.0 °F 40% 29.87 in 10.0 mi South 11.5 mph - N/A   Overcast
4:51 AM 54.0 °F - 33.1 °F 45% 29.91 in 10.0 mi SSW 4.6 mph - N/A   Overcast
5:51 AM 53.1 °F - 33.1 °F 47% 29.93 in 10.0 mi SSE 4.6 mph - N/A   Overcast
6:51 AM 51.1 °F - 33.1 °F 50% 29.95 in 10.0 mi Calm Calm - N/A   Overcast
7:51 AM 54.0 °F - 36.0 °F 51% 29.99 in 10.0 mi Calm Calm - N/A   Overcast
8:51 AM 55.9 °F - 43.0 °F 62% 30.01 in 10.0 mi WNW 8.1 mph - N/A   Overcast
9:51 AM 59.0 °F - 43.0 °F 55% 30.01 in 10.0 mi West 13.8 mph - N/A   Mostly Cloudy
10:51 AM 60.1 °F - 41.0 °F 49% 30.01 in 10.0 mi NW 10.4 mph - N/A   Mostly Cloudy
11:51 AM 63.0 °F - 34.0 °F 34% 29.99 in 10.0 mi West 11.5 mph - N/A   Mostly Cloudy
12:51 PM 64.9 °F - 36.0 °F 34% 29.98 in 10.0 mi West 10.4 mph - N/A   Mostly Cloudy
1:51 PM 64.0 °F - 33.1 °F 31% 29.97 in 10.0 mi NW 9.2 mph - N/A   Mostly Cloudy
2:51 PM 63.0 °F - 30.9 °F 30% 29.96 in 10.0 mi NNW 11.5 mph - N/A   Overcast
3:51 PM 57.0 °F - 41.0 °F 55% 29.99 in 10.0 mi WNW 13.8 mph - 0.00 in Rain Light Rain
4:51 PM 54.0 °F - 41.0 °F 62% 30.00 in 10.0 mi NW 10.4 mph - 0.02 in Rain Light Rain
5:51 PM 50.0 °F - 42.1 °F 74% 30.02 in 5.0 mi WNW 6.9 mph - 0.03 in Rain Light Rain
6:51 PM 48.0 °F - 44.1 °F 86% 30.05 in 7.0 mi Calm Calm - 0.07 in Rain Light Rain
7:51 PM 48.0 °F - 45.0 °F 89% 30.04 in 10.0 mi SSE 3.5 mph - 0.02 in Rain Light Rain
8:51 PM 48.0 °F - 44.1 °F 86% 30.06 in 10.0 mi South 4.6 mph - 0.00 in Rain Light Rain
9:51 PM 46.9 °F - 45.0 °F 93% 30.05 in 9.0 mi Calm Calm - 0.00 in   Mostly Cloudy
10:51 PM 46.0 °F - 44.1 °F 93% 30.04 in 8.0 mi Calm Calm - N/A Fog Shallow Fog
11:31 PM 44.1 °F - 42.1 °F 93% 30.03 in 6.0 mi Calm Calm - N/A Fog Patches of Fog
11:44 PM 42.1 °F - 41.0 °F 96% 30.04 in 1.0 mi Calm Calm - N/A Fog Patches of Fog
11:49 PM 42.8 °F 41.1 °F 39.2 °F 87% 30.04 in 0.2 mi WNW 3.5 mph - N/A Fog Fog
11:51 PM 41.0 °F - 39.9 °F 96% 30.04 in 0.2 mi Calm Calm - N/A Fog Fog